Вернуться в каталог

STARLINK-37045

АктивенСвязьVLEO
NORAD 68074·PAYLOAD·🇺🇸 United States

Запущен Mar 4, 2026 с Vandenberg Space Force Base

Loading…

Ближайшие Пролёты (ближайшие 24 часа)

TLE

СвежийSource: CelesTrak SupGP

Эпоха: Sep 14, 2026, 21:16 UTC

1 68074C 26042F   26257.88659722  .00006592  00000+0  19509-3 0  2573
2 68074  53.1597  16.1543 0001276  66.1157 358.1258 15.34336027    16

Отслеживайте STARLINK-37045 в реальном времени с AllMySat

Download on the App Store